| time (UTC) | temp C | wind direction | speed KPH | gust KPH | rain 1hr cm | rain 24hr cm | rain mn cm | humidity % | barometer mb |
| 20260503220624 | 12 | 99 | 1.6 | 4.8 | 0.00 | 0.08 | 0.00 | 48 | 1018.9 |
| 20260503220117 | 12 | 128 | 0.0 | 3.2 | 0.00 | 0.08 | 0.00 | 49 | 1019.0 |
| 20260503215612 | 12 | 137 | 0.0 | 3.2 | 0.00 | 0.08 | 0.00 | 49 | 1019.0 |
| 20260503215106 | 12 | 137 | 0.0 | 3.2 | 0.00 | 0.08 | 0.00 | 49 | 1018.9 |
| 20260503214600 | 12 | 137 | 0.0 | 3.2 | 0.00 | 0.08 | 0.00 | 48 | 1019.0 |
| 20260503214054 | 13 | 137 | 1.6 | 4.8 | 0.00 | 0.08 | 0.00 | 48 | 1019.0 |
| 20260503213548 | 13 | 137 | 1.6 | 4.8 | 0.00 | 0.08 | 0.00 | 47 | 1018.9 |
| 20260503213041 | 13 | 99 | 3.2 | 6.4 | 0.00 | 0.08 | 0.00 | 46 | 1018.8 |
| 20260503212535 | 13 | 116 | 1.6 | 8.0 | 0.00 | 0.08 | 0.00 | 46 | 1018.8 |
| 20260503212029 | 13 | 117 | 1.6 | 8.0 | 0.00 | 0.08 | 0.00 | 46 | 1018.8 |
| 20260503212015 | 13 | 117 | 1.6 | 6.4 | 0.00 | 0.08 | 0.00 | 47 | 1018.8 |
| 20260503211017 | 13 | 130 | 1.6 | 6.4 | 0.00 | 0.08 | 0.00 | 48 | 1018.8 |
| 20260503210512 | 13 | 108 | 3.2 | 6.4 | 0.00 | 0.08 | 0.00 | 48 | 1018.8 |
| 20260503210225 | 13 | 109 | 4.8 | 11.3 | 0.00 | 0.08 | 0.00 | 48 | 1018.8 |
| 20260503205500 | 13 | 101 | 4.8 | 11.3 | 0.00 | 0.08 | 0.08 | 48 | 1018.8 |
| 20260503204954 | 13 | 96 | 4.8 | 11.3 | 0.00 | 0.08 | 0.08 | 47 | 1018.8 |
| 20260503204448 | 13 | 98 | 4.8 | 11.3 | 0.00 | 0.08 | 0.08 | 47 | 1018.8 |
| 20260503203942 | 13 | 94 | 6.4 | 11.3 | 0.00 | 0.08 | 0.08 | 47 | 1018.8 |
| 20260503203654 | 13 | 99 | 4.8 | 11.3 | 0.00 | 0.08 | 0.08 | 46 | 1018.7 |
| 20260503202929 | 13 | 103 | 3.2 | 8.0 | 0.00 | 0.08 | 0.08 | 46 | 1018.8 |
| 20260503202423 | 13 | 88 | 1.6 | 6.4 | 0.00 | 0.08 | 0.08 | 45 | 1018.9 |
| 20260503201917 | 13 | 113 | 1.6 | 8.0 | 0.00 | 0.08 | 0.08 | 46 | 1018.8 |
| 20260503201412 | 13 | 140 | 3.2 | 8.0 | 0.00 | 0.08 | 0.08 | 46 | 1018.8 |
| 20260503200906 | 13 | 100 | 3.2 | 8.0 | 0.00 | 0.08 | 0.08 | 47 | 1018.8 |
| 20260503200400 | 13 | 103 | 3.2 | 8.0 | 0.00 | 0.08 | 0.08 | 47 | 1018.8 |
| 20260503195854 | 13 | 108 | 4.8 | 11.3 | 0.00 | 0.08 | 0.08 | 48 | 1018.8 |
| 20260503195347 | 13 | 106 | 8.0 | 14.5 | 0.00 | 0.08 | 0.08 | 48 | 1018.8 |
| 20260503194843 | 13 | 108 | 8.0 | 14.5 | 0.00 | 0.08 | 0.08 | 47 | 1018.7 |
| 20260503194336 | 13 | 106 | 6.4 | 12.9 | 0.00 | 0.08 | 0.08 | 48 | 1018.7 |
| 20260503193829 | 13 | 103 | 8.0 | 16.1 | 0.00 | 0.08 | 0.08 | 49 | 1018.7 |
| 20260503193324 | 13 | 116 | 8.0 | 16.1 | 0.00 | 0.08 | 0.08 | 49 | 1018.7 |
| 20260503192818 | 13 | 116 | 9.7 | 16.1 | 0.00 | 0.08 | 0.08 | 48 | 1018.7 |
| 20260503192313 | 13 | 122 | 9.7 | 16.1 | 0.00 | 0.08 | 0.08 | 48 | 1018.7 |
| 20260503191806 | 13 | 100 | 8.0 | 14.5 | 0.00 | 0.08 | 0.08 | 48 | 1018.6 |
| 20260503191259 | 14 | 88 | 8.0 | 12.9 | 0.00 | 0.08 | 0.08 | 48 | 1018.6 |
| 20260503191022 | 14 | 91 | 6.4 | 12.9 | 0.00 | 0.08 | 0.08 | 49 | 1018.6 |
| 20260503190248 | 14 | 113 | 4.8 | 12.9 | 0.00 | 0.08 | 0.08 | 48 | 1018.6 |
| 20260503190010 | 14 | 72 | 3.2 | 9.7 | 0.00 | 0.08 | 0.08 | 46 | 1018.5 |
| 20260503185455 | 15 | 104 | 1.6 | 9.7 | 0.00 | 0.08 | 0.08 | 45 | 1018.6 |
| 20260503184945 | 15 | 120 | 3.2 | 8.0 | 0.00 | 0.08 | 0.08 | 45 | 1018.5 |
| 20260503184225 | 15 | 104 | 3.2 | 9.7 | 0.00 | 0.08 | 0.08 | 43 | 1018.4 |
| 20260503183717 | 15 | 145 | 3.2 | 9.7 | 0.00 | 0.08 | 0.08 | 40 | 1018.3 |
| 20260503183212 | 16 | 122 | 1.6 | 8.0 | 0.00 | 0.08 | 0.08 | 36 | 1018.3 |
| 20260503182929 | 16 | 95 | 1.6 | 6.4 | 0.00 | 0.08 | 0.08 | 35 | 1018.2 |
| 20260503182202 | 16 | 112 | 1.6 | 8.0 | 0.00 | 0.08 | 0.08 | 36 | 1018.1 |
| 20260503181702 | 16 | 112 | 3.2 | 8.0 | 0.00 | 0.08 | 0.08 | 39 | 1018.0 |
| 20260503181202 | 16 | 130 | 3.2 | 8.0 | 0.00 | 0.08 | 0.08 | 38 | 1018.0 |
| 20260503180703 | 16 | 113 | 4.8 | 9.7 | 0.00 | 0.08 | 0.08 | 36 | 1017.9 |
| 20260503180202 | 15 | 97 | 4.8 | 11.3 | 0.00 | 0.08 | 0.08 | 37 | 1017.9 |
| 20260503175702 | 16 | 120 | 3.2 | 11.3 | 0.00 | 0.08 | 0.08 | 37 | 1017.8 |
| 20260503175427 | 16 | 141 | 4.8 | 9.7 | 0.00 | 0.08 | 0.08 | 37 | 1017.8 |
| 20260503175159 | 16 | 94 | 4.8 | 9.7 | 0.00 | 0.08 | 0.08 | 37 | 1017.8 |
| 20260503174202 | 16 | 94 | 4.8 | 9.7 | 0.00 | 0.08 | 0.08 | 37 | 1017.7 |
| 20260503173702 | 16 | 94 | 3.2 | 9.7 | 0.00 | 0.08 | 0.08 | 36 | 1017.6 |
| 20260503173202 | 16 | 89 | 3.2 | 8.0 | 0.00 | 0.08 | 0.08 | 36 | 1017.6 |
| 20260503172702 | 16 | 86 | 3.2 | 9.7 | 0.00 | 0.08 | 0.08 | 36 | 1017.5 |
| 20260503172202 | 16 | 74 | 4.8 | 9.7 | 0.00 | 0.08 | 0.08 | 35 | 1017.4 |
| 20260503171702 | 17 | 81 | 3.2 | 9.7 | 0.00 | 0.08 | 0.08 | 33 | 1017.4 |
| 20260503171202 | 17 | 82 | 1.6 | 4.8 | 0.00 | 0.08 | 0.08 | 31 | 1017.3 |
| 20260503170915 | 17 | 93 | 1.6 | 6.4 | 0.00 | 0.08 | 0.08 | 31 | 1017.2 |
| 20260503170200 | 17 | 82 | 3.2 | 6.4 | 0.00 | 0.08 | 0.08 | 30 | 1017.2 |
| 20260503160139 | 18 | 73 | 3.2 | 8.0 | 0.00 | 0.08 | 0.08 | 29 | 1017.0 |
| 20260503150854 | 17 | 302 | 3.2 | 11.3 | 0.00 | 0.08 | 0.08 | 30 | 1017.1 |
| 20260503150133 | 17 | 226 | 3.2 | 11.3 | 0.00 | 0.08 | 0.08 | 31 | 1017.1 |
| 20260503140123 | 17 | 217 | 1.6 | 9.7 | 0.00 | 0.08 | 0.08 | 35 | 1017.5 |
| 20260503130615 | 16 | 241 | 4.8 | 16.1 | 0.00 | 0.08 | 0.08 | 39 | 1017.9 |
| 20260503130116 | 16 | 248 | 6.4 | 17.7 | 0.00 | 0.08 | 0.08 | 39 | 1017.9 |
| 20260503110416 | 15 | 202 | 6.4 | 12.9 | 0.00 | 0.08 | 0.08 | 45 | 1018.7 |
| 20260503090153 | 13 | 275 | 8.0 | 16.1 | 0.00 | 0.08 | 0.08 | 58 | 1019.5 |
| 20260503090128 | 12 | 290 | 8.0 | 16.1 | 0.00 | 0.08 | 0.08 | 59 | 1019.5 |
| 20260503081140 | 12 | 289 | 11.3 | 20.9 | 0.00 | 0.08 | 0.08 | 60 | 1019.5 |
| 20260503080639 | 12 | 271 | 11.3 | 19.3 | 0.00 | 0.08 | 0.08 | 60 | 1019.5 |
| 20260503080139 | 12 | 283 | 11.3 | 24.1 | 0.00 | 0.08 | 0.08 | 60 | 1019.4 |
| 20260503072627 | 12 | 274 | 6.4 | 14.5 | 0.00 | 0.08 | 0.08 | 63 | 1019.5 |
| 20260503072120 | 11 | 304 | 8.0 | 14.5 | 0.00 | 0.08 | 0.08 | 64 | 1019.6 |
| 20260503071615 | 11 | 297 | 6.4 | 12.9 | 0.00 | 0.08 | 0.08 | 64 | 1019.5 |
| 20260503071109 | 11 | 302 | 8.0 | 12.9 | 0.00 | 0.08 | 0.08 | 66 | 1019.5 |
| 20260503070603 | 11 | 295 | 6.4 | 12.9 | 0.00 | 0.08 | 0.08 | 67 | 1019.4 |
| 20260503055053 | 10 | 264 | 4.8 | 9.7 | 0.05 | 0.08 | 0.08 | 73 | 1019.0 |
| 20260503054552 | 10 | 299 | 4.8 | 9.7 | 0.05 | 0.08 | 0.08 | 74 | 1019.0 |
| 20260503054053 | 10 | 354 | 4.8 | 11.3 | 0.05 | 0.08 | 0.08 | 74 | 1019.0 |
| 20260503053553 | 10 | 300 | 6.4 | 11.3 | 0.05 | 0.08 | 0.08 | 75 | 1019.1 |
| 20260503053052 | 10 | 355 | 6.4 | 12.9 | 0.08 | 0.08 | 0.08 | 75 | 1019.1 |
| 20260503052552 | 10 | 352 | 6.4 | 12.9 | 0.05 | 0.05 | 0.05 | 76 | 1019.1 |
| 20260503052314 | 10 | 10 | 3.2 | 11.3 | 0.05 | 0.05 | 0.05 | 76 | 1019.1 |
| 20260503052032 | 10 | 326 | 4.8 | 14.5 | 0.05 | 0.05 | 0.05 | 74 | 1018.9 |
| 20260503051316 | 10 | 339 | 6.4 | 14.5 | 0.05 | 0.05 | 0.05 | 74 | 1018.8 |
| 20260503050553 | 10 | 23 | 3.2 | 9.7 | 0.03 | 0.03 | 0.03 | 75 | 1018.7 |
| 20260503050052 | 10 | 40 | 1.6 | 9.7 | 0.03 | 0.03 | 0.03 | 75 | 1018.6 |
| 20260503045552 | 10 | 90 | 1.6 | 4.8 | 0.03 | 0.03 | 0.03 | 74 | 1018.5 |
| 20260503045052 | 10 | 90 | 1.6 | 4.8 | 0.03 | 0.03 | 0.03 | 73 | 1018.4 |
| 20260503044553 | 10 | 90 | 1.6 | 4.8 | 0.03 | 0.03 | 0.03 | 71 | 1018.3 |
| 20260503044052 | 10 | 90 | 0.0 | 3.2 | 0.03 | 0.03 | 0.03 | 71 | 1018.3 |
| 20260503043752 | 10 | 32 | 1.6 | 6.4 | 0.00 | 0.00 | 0.00 | 70 | 1018.3 |
| 20260503043654 | 10 | 34 | 1.6 | 6.4 | 0.03 | 0.03 | 0.03 | 70 | 1018.3 |
| 20260503042545 | 11 | 83 | 1.6 | 6.4 | 0.00 | 0.00 | 0.00 | 72 | 1018.3 |
| 20260503042043 | 11 | 79 | 0.0 | 6.4 | 0.00 | 0.00 | 0.00 | 74 | 1018.3 |
| 20260503041804 | 11 | 84 | 0.0 | 0.0 | 0.00 | 0.00 | 0.00 | 75 | 1018.3 |
| 20260503041043 | 11 | 84 | 0.0 | 1.6 | 0.00 | 0.00 | 0.00 | 76 | 1018.2 |
| 20260503040541 | 11 | 84 | 0.0 | 1.6 | 0.00 | 0.00 | 0.00 | 76 | 1018.1 |
| 20260503040041 | 11 | 84 | 1.6 | 4.8 | 0.00 | 0.00 | 0.00 | 75 | 1018.1 |
| 20260503035800 | 10 | 84 | 1.6 | 4.8 | 0.00 | 0.00 | 0.00 | 73 | 1018.1 |
| 20260503035041 | 10 | 84 | 0.0 | 3.2 | 0.00 | 0.00 | 0.00 | 73 | 1018.0 |
| 20260503034541 | 10 | 84 | 0.0 | 1.6 | 0.00 | 0.00 | 0.00 | 73 | 1017.9 |
| 20260503034038 | 10 | 84 | 0.0 | 1.6 | 0.00 | 0.00 | 0.00 | 73 | 1017.8 |
| 20260503033536 | 10 | 84 | 0.0 | 1.6 | 0.00 | 0.00 | 0.00 | 73 | 1017.8 |
| 20260503033034 | 10 | 84 | 0.0 | 3.2 | 0.00 | 0.00 | 0.00 | 73 | 1017.7 |
| 20260503032532 | 10 | 84 | 1.6 | 4.8 | 0.00 | 0.00 | 0.00 | 73 | 1017.7 |
| 20260503032030 | 10 | 84 | 1.6 | 4.8 | 0.00 | 0.00 | 0.00 | 73 | 1017.7 |
| 20260503032016 | 10 | 108 | 1.6 | 4.8 | 0.00 | 0.00 | 0.00 | 73 | 1017.6 |
| 20260503031030 | 10 | 109 | 1.6 | 3.2 | 0.00 | 0.00 | 0.00 | 73 | 1017.6 |
| 20260503030530 | 10 | 105 | 1.6 | 3.2 | 0.00 | 0.00 | 0.00 | 73 | 1017.6 |
| 20260503030031 | 10 | 105 | 1.6 | 4.8 | 0.00 | 0.00 | 0.00 | 73 | 1017.6 |
| 20260503025528 | 10 | 105 | 1.6 | 8.0 | 0.00 | 0.00 | 0.00 | 74 | 1017.7 |
| 20260503025026 | 10 | 105 | 1.6 | 8.0 | 0.00 | 0.00 | 0.00 | 75 | 1017.9 |
| 20260503024526 | 10 | 109 | 3.2 | 6.4 | 0.00 | 0.00 | 0.00 | 76 | 1017.9 |
| 20260503024019 | 10 | 101 | 3.2 | 6.4 | 0.00 | 0.00 | 0.00 | 76 | 1018.0 |
| 20260503023513 | 10 | 93 | 1.6 | 6.4 | 0.00 | 0.00 | 0.00 | 77 | 1018.0 |
| 20260503023007 | 10 | 103 | 0.0 | 1.6 | 0.00 | 0.00 | 0.00 | 78 | 1017.9 |
| 20260503022502 | 10 | 103 | 0.0 | 3.2 | 0.00 | 0.00 | 0.00 | 77 | 1018.0 |
| 20260503022431 | 10 | 103 | 1.6 | 3.2 | 0.00 | 0.00 | 0.00 | 77 | 1017.9 |
| 20260503021713 | 10 | 103 | 1.6 | 3.2 | 0.00 | 0.00 | 0.00 | 76 | 1017.8 |
| 20260503020944 | 10 | 103 | 1.6 | 3.2 | 0.00 | 0.00 | 0.00 | 75 | 1017.9 |
| 20260503020437 | 10 | 103 | 1.6 | 4.8 | 0.00 | 0.00 | 0.00 | 74 | 1017.8 |
| 20260503015931 | 10 | 103 | 1.6 | 4.8 | 0.00 | 0.00 | 0.00 | 74 | 1017.6 |
| 20260503015425 | 10 | 103 | 1.6 | 4.8 | 0.00 | 0.00 | 0.00 | 75 | 1017.6 |
| 20260503015148 | 10 | 103 | 1.6 | 3.2 | 0.00 | 0.00 | 0.00 | 75 | 1017.7 |
| 20260503014414 | 10 | 103 | 1.6 | 6.4 | 0.00 | 0.00 | 0.00 | 75 | 1017.5 |
| 20260503013907 | 10 | 103 | 3.2 | 6.4 | 0.00 | 0.00 | 0.00 | 75 | 1017.6 |
| 20260503013402 | 10 | 103 | 3.2 | 6.4 | 0.00 | 0.00 | 0.00 | 75 | 1017.8 |
| 20260503012856 | 10 | 132 | 1.6 | 6.4 | 0.00 | 0.00 | 0.00 | 76 | 1017.8 |
| 20260503012349 | 10 | 92 | 0.0 | 3.2 | 0.00 | 0.00 | 0.00 | 76 | 1017.9 |
| 20260503011843 | 10 | 92 | 0.0 | 3.2 | 0.00 | 0.00 | 0.00 | 76 | 1017.9 |
| 20260503011338 | 10 | 92 | 1.6 | 4.8 | 0.00 | 0.00 | 0.00 | 76 | 1017.9 |
| 20260503010832 | 10 | 92 | 1.6 | 6.4 | 0.00 | 0.00 | 0.00 | 75 | 1017.9 |
| 20260503010326 | 10 | 93 | 1.6 | 6.4 | 0.00 | 0.00 | 0.00 | 74 | 1017.8 |
| 20260503005820 | 10 | 101 | 1.6 | 3.2 | 0.00 | 0.00 | 0.00 | 75 | 1017.8 |
| 20260503005757 | 10 | 101 | 1.6 | 4.8 | 0.00 | 0.00 | 0.00 | 74 | 1017.8 |
| 20260503004809 | 10 | 101 | 4.8 | 9.7 | 0.00 | 0.00 | 0.00 | 75 | 1017.9 |
| 20260503004302 | 10 | 105 | 4.8 | 9.7 | 0.00 | 0.00 | 0.00 | 76 | 1017.9 |
| 20260503003755 | 10 | 108 | 4.8 | 12.9 | 0.00 | 0.00 | 0.00 | 77 | 1017.9 |
| 20260503003250 | 10 | 94 | 6.4 | 12.9 | 0.00 | 0.00 | 0.00 | 76 | 1017.9 |
| 20260503002743 | 10 | 72 | 6.4 | 11.3 | 0.00 | 0.00 | 0.00 | 75 | 1018.0 |
| 20260503002238 | 10 | 115 | 6.4 | 9.7 | 0.00 | 0.00 | 0.00 | 74 | 1018.1 |
| 20260503001732 | 10 | 84 | 3.2 | 9.7 | 0.00 | 0.00 | 0.00 | 72 | 1018.1 |
| 20260503001226 | 11 | 141 | 3.2 | 8.0 | 0.00 | 0.00 | 0.00 | 71 | 1018.1 |
| 20260503000942 | 11 | 141 | 3.2 | 8.0 | 0.00 | 0.00 | 0.00 | 70 | 1018.1 |
| 20260503000214 | 11 | 99 | 4.8 | 9.7 | 0.00 | 0.00 | 0.00 | 67 | 1018.2 |
| 20260502235712 | 11 | 87 | 4.8 | 9.7 | 0.00 | 0.00 | 0.00 | 66 | 1018.4 |
| 20260502235202 | 11 | 76 | 3.2 | 9.7 | 0.00 | 0.00 | 0.00 | 66 | 1018.4 |
| 20260502234655 | 11 | 117 | 1.6 | 8.0 | 0.00 | 0.00 | 0.00 | 69 | 1018.4 |
| 20260502234150 | 11 | 140 | 1.6 | 8.0 | 0.00 | 0.00 | 0.00 | 70 | 1018.5 |
| 20260502233643 | 10 | 74 | 1.6 | 8.0 | 0.00 | 0.00 | 0.00 | 72 | 1018.5 |
| 20260502233137 | 10 | 103 | 3.2 | 6.4 | 0.00 | 0.00 | 0.00 | 72 | 1018.7 |
| 20260502232632 | 10 | 103 | 4.8 | 11.3 | 0.00 | 0.00 | 0.00 | 72 | 1018.7 |
| 20260502232126 | 10 | 76 | 4.8 | 11.3 | 0.00 | 0.00 | 0.00 | 71 | 1018.6 |
| 20260502231620 | 10 | 141 | 4.8 | 11.3 | 0.00 | 0.00 | 0.00 | 71 | 1018.7 |
| 20260502231114 | 10 | 68 | 4.8 | 12.9 | 0.00 | 0.00 | 0.00 | 71 | 1018.6 |
| 20260502230608 | 10 | 91 | 1.6 | 11.3 | 0.00 | 0.00 | 0.00 | 72 | 1018.6 |
| 20260502230108 | 10 | 94 | 3.2 | 8.0 | 0.00 | 0.00 | 0.00 | 73 | 1018.6 |
| 20260502225824 | 10 | 61 | 4.8 | 14.5 | 0.00 | 0.00 | 0.00 | 73 | 1018.8 |
| 20260502225103 | 10 | 20 | 6.4 | 16.1 | 0.00 | 0.00 | 0.00 | 73 | 1018.9 |
| 20260502224604 | 10 | 98 | 6.4 | 16.1 | 0.00 | 0.00 | 0.00 | 73 | 1019.0 |
| 20260502224104 | 10 | 59 | 8.0 | 16.1 | 0.00 | 0.00 | 0.00 | 73 | 1019.1 |
| 20260502223602 | 10 | 79 | 8.0 | 16.1 | 0.00 | 0.00 | 0.00 | 73 | 1019.1 |
| 20260502223321 | 10 | 89 | 9.7 | 24.1 | 0.00 | 0.00 | 0.00 | 74 | 1019.1 |
| 20260502222602 | 10 | 74 | 11.3 | 24.1 | 0.00 | 0.00 | 0.00 | 73 | 1019.3 |
| 20260502222101 | 10 | 66 | 9.7 | 19.3 | 0.00 | 0.00 | 0.00 | 74 | 1019.4 |
| 20260502221602 | 11 | 86 | 11.3 | 25.7 | 0.00 | 0.00 | 0.00 | 73 | 1019.6 |
| 20260502221101 | 11 | 13 | 9.7 | 25.7 | 0.00 | 0.00 | 0.00 | 72 | 1019.6 |